Data supplied by UK-AIR on 13/1/2024
All Data GMT hour ending 
Status: R =Ratified P=Provisional,P*=As supplied
,,London Haringey Priory Park South,,,,,,,,,,,,,,,,,,,,,,,
Date,time,"Nitric oxide",status,unit,"Nitrogen dioxide",status,unit,"Nitrogen oxides as nitrogen dioxide",status,unit,"Ozone",status,unit
 
01-01-2023,01:00,0.00000,R,ugm-3,4.78125,R,ugm-3,4.78125,R,ugm-3,60.66928,R,ugm-3
01-01-2023,02:00,0.12473,R,ugm-3,4.39875,R,ugm-3,4.59000,R,ugm-3,61.86670,R,ugm-3
01-01-2023,03:00,0.00000,R,ugm-3,3.44250,R,ugm-3,3.44250,R,ugm-3,64.06197,R,ugm-3
01-01-2023,04:00,0.00000,R,ugm-3,3.25125,R,ugm-3,3.06000,R,ugm-3,63.46326,R,ugm-3
01-01-2023,05:00,0.00000,R,ugm-3,3.06000,R,ugm-3,3.25125,R,ugm-3,62.86455,R,ugm-3
01-01-2023,06:00,0.00000,R,ugm-3,3.82500,R,ugm-3,3.82500,R,ugm-3,63.06412,R,ugm-3
01-01-2023,07:00,0.00000,R,ugm-3,4.78125,R,ugm-3,4.78125,R,ugm-3,62.06627,R,ugm-3
01-01-2023,08:00,0.24946,R,ugm-3,6.31125,R,ugm-3,6.69375,R,ugm-3,60.07057,R,ugm-3
01-01-2023,09:00,0.24946,R,ugm-3,7.26750,R,ugm-3,7.65000,R,ugm-3,58.87315,R,ugm-3
01-01-2023,10:00,0.49892,R,ugm-3,6.50250,R,ugm-3,7.26750,R,ugm-3,59.87100,R,ugm-3
01-01-2023,11:00,0.37419,R,ugm-3,4.97250,R,ugm-3,5.54625,R,ugm-3,60.27014,R,ugm-3
01-01-2023,12:00,0.49892,R,ugm-3,5.54625,R,ugm-3,6.31125,R,ugm-3,59.27229,R,ugm-3
01-01-2023,13:00,0.37419,R,ugm-3,6.50250,R,ugm-3,7.26750,R,ugm-3,57.87530,R,ugm-3
01-01-2023,14:00,0.37419,R,ugm-3,6.50250,R,ugm-3,7.07625,R,ugm-3,58.67358,R,ugm-3
01-01-2023,15:00,0.24946,R,ugm-3,7.07625,R,ugm-3,7.45875,R,ugm-3,56.27874,R,ugm-3
01-01-2023,16:00,0.37419,R,ugm-3,10.51875,R,ugm-3,11.09250,R,ugm-3,51.48906,R,ugm-3
01-01-2023,17:00,0.37419,R,ugm-3,11.47500,R,ugm-3,12.04875,R,ugm-3,51.88820,R,ugm-3
01-01-2023,18:00,0.62365,R,ugm-3,12.24000,R,ugm-3,13.00500,R,ugm-3,54.48261,R,ugm-3
01-01-2023,19:00,0.74838,R,ugm-3,14.53500,R,ugm-3,15.68250,R,ugm-3,50.69078,R,ugm-3
01-01-2023,20:00,0.49892,R,ugm-3,15.49125,R,ugm-3,16.25625,R,ugm-3,47.89680,R,ugm-3
01-01-2023,21:00,0.87311,R,ugm-3,20.27250,R,ugm-3,21.61125,R,ugm-3,43.10712,R,ugm-3
01-01-2023,22:00,0.37419,R,ugm-3,20.27250,R,ugm-3,20.84625,R,ugm-3,38.71658,R,ugm-3
01-01-2023,23:00,0.24946,R,ugm-3,21.22875,R,ugm-3,21.61125,R,ugm-3,32.52991,R,ugm-3
01-01-2023,24:00,0.24946,R,ugm-3,21.42000,R,ugm-3,21.80250,R,ugm-3,34.72518,R,ugm-3
02-01-2023,01:00,0.12473,R,ugm-3,22.37625,R,ugm-3,22.56750,R,ugm-3,40.51271,R,ugm-3
02-01-2023,02:00,0.24946,R,ugm-3,13.57875,R,ugm-3,13.77000,R,ugm-3,45.90110,R,ugm-3
02-01-2023,03:00,0.00000,R,ugm-3,8.03250,R,ugm-3,8.03250,R,ugm-3,49.49336,R,ugm-3
02-01-2023,04:00,0.12473,R,ugm-3,5.16375,R,ugm-3,5.54625,R,ugm-3,49.49336,R,ugm-3
02-01-2023,05:00,0.12473,R,ugm-3,6.12000,R,ugm-3,6.31125,R,ugm-3,48.89465,R,ugm-3
02-01-2023,06:00,0.12473,R,ugm-3,6.50250,R,ugm-3,6.69375,R,ugm-3,45.90110,R,ugm-3
02-01-2023,07:00,0.12473,R,ugm-3,10.32750,R,ugm-3,10.51875,R,ugm-3,42.10927,R,ugm-3
02-01-2023,08:00,0.49892,R,ugm-3,14.34375,R,ugm-3,15.10875,R,ugm-3,36.32174,R,ugm-3
02-01-2023,09:00,1.24730,R,ugm-3,22.18500,R,ugm-3,24.09750,R,ugm-3,31.73163,R,ugm-3
02-01-2023,10:00,2.12041,R,ugm-3,20.27250,R,ugm-3,23.52375,R,ugm-3,33.72733,R,ugm-3
02-01-2023,11:00,2.74406,R,ugm-3,15.68250,R,ugm-3,20.08125,R,ugm-3,34.72518,R,ugm-3
02-01-2023,12:00,1.87095,R,ugm-3,10.32750,R,ugm-3,13.19625,R,ugm-3,43.90540,R,ugm-3
02-01-2023,13:00,1.24730,R,ugm-3,8.79750,R,ugm-3,10.90125,R,ugm-3,45.30239,R,ugm-3
02-01-2023,14:00,0.99784,R,ugm-3,7.26750,R,ugm-3,8.79750,R,ugm-3,49.29379,R,ugm-3
02-01-2023,15:00,0.87311,R,ugm-3,8.03250,R,ugm-3,9.56250,R,ugm-3,44.90325,R,ugm-3
02-01-2023,16:00,0.99784,R,ugm-3,16.44750,R,ugm-3,17.97750,R,ugm-3,,,
02-01-2023,17:00,2.12041,R,ugm-3,34.42500,R,ugm-3,37.86750,R,ugm-3,,,
02-01-2023,18:00,17.46220,R,ugm-3,47.04750,R,ugm-3,73.82250,R,ugm-3,,,
02-01-2023,19:00,21.32883,R,ugm-3,51.25500,R,ugm-3,83.76750,R,ugm-3,,,
02-01-2023,20:00,9.60421,R,ugm-3,51.44625,R,ugm-3,66.17250,R,ugm-3,,,
02-01-2023,21:00,15.84071,R,ugm-3,48.19500,R,ugm-3,72.48375,R,ugm-3,,,
02-01-2023,22:00,19.33315,R,ugm-3,41.50125,R,ugm-3,70.95375,R,ugm-3,,,
02-01-2023,23:00,29.93520,R,ugm-3,41.31000,R,ugm-3,87.21000,R,ugm-3,,,
02-01-2023,24:00,27.31587,R,ugm-3,37.86750,R,ugm-3,79.75125,R,ugm-3,,,
03-01-2023,01:00,38.29211,R,ugm-3,34.61625,R,ugm-3,93.33000,R,ugm-3,,,
03-01-2023,02:00,33.05345,R,ugm-3,39.39750,R,ugm-3,90.07875,R,ugm-3,,,
03-01-2023,03:00,16.96328,R,ugm-3,39.97125,R,ugm-3,66.17250,R,ugm-3,,,
03-01-2023,04:00,7.98272,R,ugm-3,35.19000,R,ugm-3,47.43000,R,ugm-3,,,
03-01-2023,05:00,8.48164,R,ugm-3,29.26125,R,ugm-3,42.26625,R,ugm-3,,,
03-01-2023,06:00,14.34395,R,ugm-3,22.95000,R,ugm-3,44.94375,R,ugm-3,,,
03-01-2023,07:00,2.49460,R,ugm-3,26.58375,R,ugm-3,30.40875,R,ugm-3,,,
03-01-2023,08:00,1.49676,R,ugm-3,32.13000,R,ugm-3,34.42500,R,ugm-3,,,
03-01-2023,09:00,1.12257,R,ugm-3,28.49625,R,ugm-3,30.21750,R,ugm-3,33.92690,R,ugm-3
03-01-2023,10:00,0.99784,R,ugm-3,19.50750,R,ugm-3,21.03750,R,ugm-3,43.50626,R,ugm-3
03-01-2023,11:00,0.74838,R,ugm-3,14.53500,R,ugm-3,15.49125,R,ugm-3,45.70153,R,ugm-3
03-01-2023,12:00,0.62365,R,ugm-3,16.06500,R,ugm-3,17.02125,R,ugm-3,46.10067,R,ugm-3
03-01-2023,13:00,0.74838,R,ugm-3,15.10875,R,ugm-3,16.25625,R,ugm-3,47.49766,R,ugm-3
03-01-2023,14:00,0.74838,R,ugm-3,12.62250,R,ugm-3,13.57875,R,ugm-3,51.08992,R,ugm-3
03-01-2023,15:00,0.49892,R,ugm-3,10.51875,R,ugm-3,11.28375,R,ugm-3,54.28304,R,ugm-3
03-01-2023,16:00,0.37419,R,ugm-3,9.94500,R,ugm-3,10.71000,R,ugm-3,54.48261,R,ugm-3
03-01-2023,17:00,0.49892,R,ugm-3,10.51875,R,ugm-3,11.28375,R,ugm-3,54.08347,R,ugm-3
03-01-2023,18:00,0.49892,R,ugm-3,10.90125,R,ugm-3,11.66625,R,ugm-3,54.08347,R,ugm-3
03-01-2023,19:00,0.49892,R,ugm-3,10.71000,R,ugm-3,11.28375,R,ugm-3,54.68218,R,ugm-3
03-01-2023,20:00,0.24946,R,ugm-3,8.79750,R,ugm-3,9.18000,R,ugm-3,55.48046,R,ugm-3
03-01-2023,21:00,0.12473,R,ugm-3,8.03250,R,ugm-3,8.22375,R,ugm-3,54.68218,R,ugm-3
03-01-2023,22:00,0.12473,R,ugm-3,7.07625,R,ugm-3,7.07625,R,ugm-3,55.08132,R,ugm-3
03-01-2023,23:00,0.12473,R,ugm-3,5.73750,R,ugm-3,5.92875,R,ugm-3,58.87315,R,ugm-3
03-01-2023,24:00,0.00000,R,ugm-3,3.63375,R,ugm-3,3.63375,R,ugm-3,61.86670,R,ugm-3
04-01-2023,01:00,0.00000,R,ugm-3,2.86875,R,ugm-3,2.86875,R,ugm-3,63.46326,R,ugm-3
04-01-2023,02:00,0.12473,R,ugm-3,1.91250,R,ugm-3,2.10375,R,ugm-3,64.86025,R,ugm-3
04-01-2023,03:00,0.00000,R,ugm-3,1.72125,R,ugm-3,1.72125,R,ugm-3,65.05982,R,ugm-3
04-01-2023,04:00,0.00000,R,ugm-3,1.91250,R,ugm-3,1.91250,R,ugm-3,63.06412,R,ugm-3
04-01-2023,05:00,0.00000,R,ugm-3,2.48625,R,ugm-3,2.48625,R,ugm-3,60.86885,R,ugm-3
04-01-2023,06:00,0.00000,R,ugm-3,3.25125,R,ugm-3,3.25125,R,ugm-3,58.47401,R,ugm-3
04-01-2023,07:00,0.12473,R,ugm-3,5.54625,R,ugm-3,5.92875,R,ugm-3,55.68003,R,ugm-3
04-01-2023,08:00,0.37419,R,ugm-3,9.18000,R,ugm-3,9.75375,R,ugm-3,52.88605,R,ugm-3
04-01-2023,09:00,0.74838,R,ugm-3,15.10875,R,ugm-3,16.25625,R,ugm-3,47.69723,R,ugm-3
04-01-2023,10:00,0.62365,R,ugm-3,17.97750,R,ugm-3,18.93375,R,ugm-3,47.09852,R,ugm-3
04-01-2023,11:00,0.74838,R,ugm-3,12.62250,R,ugm-3,13.77000,R,ugm-3,51.28949,R,ugm-3
04-01-2023,12:00,,,,,,,,,,53.68433,R,ugm-3
04-01-2023,13:00,0.87311,R,ugm-3,8.41500,R,ugm-3,9.75375,R,ugm-3,58.87315,R,ugm-3
04-01-2023,14:00,0.87311,R,ugm-3,8.41500,R,ugm-3,9.75375,R,ugm-3,55.68003,R,ugm-3
04-01-2023,15:00,0.99784,R,ugm-3,9.75375,R,ugm-3,11.47500,R,ugm-3,54.88175,R,ugm-3
04-01-2023,16:00,0.74838,R,ugm-3,11.28375,R,ugm-3,12.43125,R,ugm-3,51.28949,R,ugm-3
04-01-2023,17:00,0.74838,R,ugm-3,11.28375,R,ugm-3,12.24000,R,ugm-3,55.28089,R,ugm-3
04-01-2023,18:00,0.74838,R,ugm-3,9.75375,R,ugm-3,10.90125,R,ugm-3,53.28519,R,ugm-3
04-01-2023,19:00,0.74838,R,ugm-3,10.71000,R,ugm-3,11.66625,R,ugm-3,53.68433,R,ugm-3
04-01-2023,20:00,0.62365,R,ugm-3,10.71000,R,ugm-3,11.66625,R,ugm-3,51.28949,R,ugm-3
04-01-2023,21:00,0.49892,R,ugm-3,12.24000,R,ugm-3,13.19625,R,ugm-3,49.29379,R,ugm-3
04-01-2023,22:00,0.49892,R,ugm-3,12.24000,R,ugm-3,13.00500,R,ugm-3,47.89680,R,ugm-3
04-01-2023,23:00,0.62365,R,ugm-3,12.24000,R,ugm-3,13.00500,R,ugm-3,49.69293,R,ugm-3
04-01-2023,24:00,0.24946,R,ugm-3,7.26750,R,ugm-3,7.65000,R,ugm-3,52.88605,R,ugm-3
05-01-2023,01:00,0.24946,R,ugm-3,6.31125,R,ugm-3,6.50250,R,ugm-3,53.48476,R,ugm-3
05-01-2023,02:00,0.24946,R,ugm-3,4.20750,R,ugm-3,4.59000,R,ugm-3,52.68648,R,ugm-3
05-01-2023,03:00,0.24946,R,ugm-3,4.20750,R,ugm-3,4.59000,R,ugm-3,50.09207,R,ugm-3
05-01-2023,04:00,0.12473,R,ugm-3,5.16375,R,ugm-3,5.35500,R,ugm-3,49.69293,R,ugm-3
05-01-2023,05:00,0.24946,R,ugm-3,5.35500,R,ugm-3,5.73750,R,ugm-3,48.89465,R,ugm-3
05-01-2023,06:00,0.24946,R,ugm-3,7.84125,R,ugm-3,8.22375,R,ugm-3,45.30239,R,ugm-3
05-01-2023,07:00,0.37419,R,ugm-3,11.28375,R,ugm-3,11.85750,R,ugm-3,40.51271,R,ugm-3
05-01-2023,08:00,0.74838,R,ugm-3,18.36000,R,ugm-3,19.31625,R,ugm-3,35.52346,R,ugm-3
05-01-2023,09:00,1.37203,R,ugm-3,24.67125,R,ugm-3,26.77500,R,ugm-3,29.53636,R,ugm-3
05-01-2023,10:00,1.62149,R,ugm-3,22.56750,R,ugm-3,25.05375,R,ugm-3,32.92905,R,ugm-3
05-01-2023,11:00,1.74622,R,ugm-3,18.36000,R,ugm-3,21.22875,R,ugm-3,38.91615,R,ugm-3
05-01-2023,12:00,1.62149,R,ugm-3,16.63875,R,ugm-3,18.93375,R,ugm-3,41.31099,R,ugm-3
05-01-2023,13:00,1.12257,R,ugm-3,17.97750,R,ugm-3,19.69875,R,ugm-3,48.09637,R,ugm-3
05-01-2023,14:00,0.62365,R,ugm-3,12.43125,R,ugm-3,13.19625,R,ugm-3,53.68433,R,ugm-3
05-01-2023,15:00,0.62365,R,ugm-3,13.38750,R,ugm-3,14.34375,R,ugm-3,52.28734,R,ugm-3
05-01-2023,16:00,0.49892,R,ugm-3,12.43125,R,ugm-3,13.19625,R,ugm-3,55.28089,R,ugm-3
05-01-2023,17:00,0.37419,R,ugm-3,14.15250,R,ugm-3,14.91750,R,ugm-3,52.08777,R,ugm-3
05-01-2023,18:00,0.49892,R,ugm-3,17.02125,R,ugm-3,17.97750,R,ugm-3,50.69078,R,ugm-3
05-01-2023,19:00,0.62365,R,ugm-3,16.63875,R,ugm-3,17.59500,R,ugm-3,53.28519,R,ugm-3
05-01-2023,20:00,0.24946,R,ugm-3,13.77000,R,ugm-3,14.34375,R,ugm-3,55.08132,R,ugm-3
05-01-2023,21:00,0.12473,R,ugm-3,11.47500,R,ugm-3,11.66625,R,ugm-3,59.27229,R,ugm-3
05-01-2023,22:00,0.12473,R,ugm-3,8.60625,R,ugm-3,8.79750,R,ugm-3,59.47186,R,ugm-3
05-01-2023,23:00,0.12473,R,ugm-3,8.98875,R,ugm-3,9.18000,R,ugm-3,59.07272,R,ugm-3
05-01-2023,24:00,0.00000,R,ugm-3,4.97250,R,ugm-3,4.97250,R,ugm-3,62.66498,R,ugm-3
06-01-2023,01:00,0.00000,R,ugm-3,3.63375,R,ugm-3,3.63375,R,ugm-3,63.66283,R,ugm-3
06-01-2023,02:00,0.00000,R,ugm-3,3.44250,R,ugm-3,3.44250,R,ugm-3,62.46541,R,ugm-3
06-01-2023,03:00,0.00000,R,ugm-3,2.10375,R,ugm-3,1.91250,R,ugm-3,66.05767,R,ugm-3
06-01-2023,04:00,-0.12473,R,ugm-3,1.91250,R,ugm-3,1.72125,R,ugm-3,64.86025,R,ugm-3
06-01-2023,05:00,0.12473,R,ugm-3,3.82500,R,ugm-3,4.01625,R,ugm-3,61.06842,R,ugm-3
06-01-2023,06:00,0.12473,R,ugm-3,7.07625,R,ugm-3,7.26750,R,ugm-3,56.07917,R,ugm-3
06-01-2023,07:00,0.24946,R,ugm-3,12.62250,R,ugm-3,13.00500,R,ugm-3,50.29164,R,ugm-3
06-01-2023,08:00,0.87311,R,ugm-3,17.02125,R,ugm-3,18.36000,R,ugm-3,47.49766,R,ugm-3
06-01-2023,09:00,1.12257,R,ugm-3,21.22875,R,ugm-3,23.14125,R,ugm-3,40.91185,R,ugm-3
06-01-2023,10:00,2.12041,R,ugm-3,23.71500,R,ugm-3,26.96625,R,ugm-3,37.12002,R,ugm-3
06-01-2023,11:00,1.99568,R,ugm-3,16.25625,R,ugm-3,19.31625,R,ugm-3,51.28949,R,ugm-3
06-01-2023,12:00,1.62149,R,ugm-3,13.38750,R,ugm-3,15.87375,R,ugm-3,52.88605,R,ugm-3
06-01-2023,13:00,1.24730,R,ugm-3,12.43125,R,ugm-3,14.34375,R,ugm-3,55.48046,R,ugm-3
06-01-2023,14:00,0.87311,R,ugm-3,13.57875,R,ugm-3,14.91750,R,ugm-3,56.47831,R,ugm-3
06-01-2023,15:00,0.87311,R,ugm-3,13.77000,R,ugm-3,15.10875,R,ugm-3,57.07702,R,ugm-3
06-01-2023,16:00,0.62365,R,ugm-3,18.74250,R,ugm-3,19.69875,R,ugm-3,48.29594,R,ugm-3
06-01-2023,17:00,0.74838,R,ugm-3,26.96625,R,ugm-3,28.11375,R,ugm-3,39.11572,R,ugm-3
06-01-2023,18:00,0.99784,R,ugm-3,31.17375,R,ugm-3,32.70375,R,ugm-3,35.32389,R,ugm-3
06-01-2023,19:00,0.62365,R,ugm-3,22.95000,R,ugm-3,23.90625,R,ugm-3,43.30669,R,ugm-3
06-01-2023,20:00,0.37419,R,ugm-3,16.25625,R,ugm-3,16.63875,R,ugm-3,49.09422,R,ugm-3
06-01-2023,21:00,0.24946,R,ugm-3,9.37125,R,ugm-3,9.75375,R,ugm-3,55.68003,R,ugm-3
06-01-2023,22:00,0.12473,R,ugm-3,7.84125,R,ugm-3,8.22375,R,ugm-3,54.68218,R,ugm-3
06-01-2023,23:00,0.00000,R,ugm-3,7.65000,R,ugm-3,7.65000,R,ugm-3,54.28304,R,ugm-3
06-01-2023,24:00,0.00000,R,ugm-3,6.50250,R,ugm-3,6.50250,R,ugm-3,54.48261,R,ugm-3
07-01-2023,01:00,0.00000,R,ugm-3,5.16375,R,ugm-3,5.35500,R,ugm-3,55.68003,R,ugm-3
07-01-2023,02:00,0.00000,R,ugm-3,3.82500,R,ugm-3,3.82500,R,ugm-3,,,
07-01-2023,03:00,0.00000,R,ugm-3,3.63375,R,ugm-3,3.44250,R,ugm-3,,,
07-01-2023,04:00,0.00000,R,ugm-3,2.67750,R,ugm-3,2.86875,R,ugm-3,59.67143,R,ugm-3
07-01-2023,05:00,0.00000,R,ugm-3,2.67750,R,ugm-3,2.86875,R,ugm-3,59.67143,R,ugm-3
07-01-2023,06:00,0.12473,R,ugm-3,4.59000,R,ugm-3,4.59000,R,ugm-3,56.67788,R,ugm-3
07-01-2023,07:00,0.12473,R,ugm-3,6.31125,R,ugm-3,6.69375,R,ugm-3,55.08132,R,ugm-3
07-01-2023,08:00,0.37419,R,ugm-3,7.65000,R,ugm-3,8.22375,R,ugm-3,54.48261,R,ugm-3
07-01-2023,09:00,0.37419,R,ugm-3,9.75375,R,ugm-3,10.32750,R,ugm-3,50.69078,R,ugm-3
07-01-2023,10:00,0.62365,R,ugm-3,12.04875,R,ugm-3,13.00500,R,ugm-3,48.29594,R,ugm-3
07-01-2023,11:00,0.74838,R,ugm-3,14.34375,R,ugm-3,15.49125,R,ugm-3,47.09852,R,ugm-3
07-01-2023,12:00,0.37419,R,ugm-3,10.32750,R,ugm-3,10.90125,R,ugm-3,49.49336,R,ugm-3
07-01-2023,13:00,0.62365,R,ugm-3,10.13625,R,ugm-3,11.09250,R,ugm-3,46.89895,R,ugm-3
07-01-2023,14:00,0.49892,R,ugm-3,10.51875,R,ugm-3,11.28375,R,ugm-3,46.30024,R,ugm-3
07-01-2023,15:00,0.62365,R,ugm-3,11.28375,R,ugm-3,12.24000,R,ugm-3,49.29379,R,ugm-3
07-01-2023,16:00,0.37419,R,ugm-3,8.98875,R,ugm-3,9.56250,R,ugm-3,,,
07-01-2023,17:00,0.24946,R,ugm-3,9.37125,R,ugm-3,9.94500,R,ugm-3,62.06627,R,ugm-3
07-01-2023,18:00,0.24946,R,ugm-3,9.18000,R,ugm-3,9.56250,R,ugm-3,69.05122,R,ugm-3
07-01-2023,19:00,0.37419,R,ugm-3,6.88500,R,ugm-3,7.45875,R,ugm-3,72.04477,R,ugm-3
07-01-2023,20:00,0.24946,R,ugm-3,9.18000,R,ugm-3,9.75375,R,ugm-3,67.65423,R,ugm-3
07-01-2023,21:00,0.12473,R,ugm-3,9.75375,R,ugm-3,9.94500,R,ugm-3,68.25294,R,ugm-3
07-01-2023,22:00,0.24946,R,ugm-3,9.94500,R,ugm-3,10.32750,R,ugm-3,69.25079,R,ugm-3
07-01-2023,23:00,0.24946,R,ugm-3,8.22375,R,ugm-3,8.60625,R,ugm-3,,,
07-01-2023,24:00,0.12473,R,ugm-3,7.65000,R,ugm-3,7.84125,R,ugm-3,,,
08-01-2023,01:00,0.00000,R,ugm-3,6.69375,R,ugm-3,6.69375,R,ugm-3,,,
08-01-2023,02:00,0.00000,R,ugm-3,4.39875,R,ugm-3,4.39875,R,ugm-3,,,
08-01-2023,03:00,0.00000,R,ugm-3,3.25125,R,ugm-3,3.44250,R,ugm-3,65.85810,R,ugm-3
08-01-2023,04:00,0.00000,R,ugm-3,3.44250,R,ugm-3,3.25125,R,ugm-3,66.65638,R,ugm-3
08-01-2023,05:00,0.00000,R,ugm-3,2.48625,R,ugm-3,2.48625,R,ugm-3,67.85380,R,ugm-3
08-01-2023,06:00,0.12473,R,ugm-3,2.67750,R,ugm-3,2.67750,R,ugm-3,66.85595,R,ugm-3
08-01-2023,07:00,0.12473,R,ugm-3,6.12000,R,ugm-3,6.31125,R,ugm-3,64.26154,R,ugm-3
08-01-2023,08:00,0.37419,R,ugm-3,6.50250,R,ugm-3,7.07625,R,ugm-3,63.46326,R,ugm-3
08-01-2023,09:00,0.24946,R,ugm-3,7.84125,R,ugm-3,8.41500,R,ugm-3,60.66928,R,ugm-3
08-01-2023,10:00,0.87311,R,ugm-3,12.43125,R,ugm-3,13.57875,R,ugm-3,55.48046,R,ugm-3
08-01-2023,11:00,0.87311,R,ugm-3,9.75375,R,ugm-3,11.09250,R,ugm-3,58.27444,R,ugm-3
08-01-2023,12:00,0.62365,R,ugm-3,8.98875,R,ugm-3,9.94500,R,ugm-3,57.07702,R,ugm-3
08-01-2023,13:00,0.49892,R,ugm-3,8.60625,R,ugm-3,9.37125,R,ugm-3,60.86885,R,ugm-3
08-01-2023,14:00,0.74838,R,ugm-3,13.57875,R,ugm-3,14.72625,R,ugm-3,58.07487,R,ugm-3
08-01-2023,15:00,0.37419,R,ugm-3,10.13625,R,ugm-3,10.71000,R,ugm-3,64.46111,R,ugm-3
08-01-2023,16:00,0.37419,R,ugm-3,10.71000,R,ugm-3,11.28375,R,ugm-3,64.46111,R,ugm-3
08-01-2023,17:00,0.37419,R,ugm-3,15.49125,R,ugm-3,16.06500,R,ugm-3,60.27014,R,ugm-3
08-01-2023,18:00,0.49892,R,ugm-3,11.85750,R,ugm-3,12.43125,R,ugm-3,60.86885,R,ugm-3
08-01-2023,19:00,0.49892,R,ugm-3,19.50750,R,ugm-3,20.27250,R,ugm-3,49.09422,R,ugm-3
08-01-2023,20:00,0.62365,R,ugm-3,22.56750,R,ugm-3,23.52375,R,ugm-3,46.10067,R,ugm-3
08-01-2023,21:00,0.37419,R,ugm-3,17.97750,R,ugm-3,18.55125,R,ugm-3,50.49121,R,ugm-3
08-01-2023,22:00,0.37419,R,ugm-3,16.06500,R,ugm-3,16.83000,R,ugm-3,57.47616,R,ugm-3
08-01-2023,23:00,0.24946,R,ugm-3,11.85750,R,ugm-3,12.24000,R,ugm-3,57.07702,R,ugm-3
08-01-2023,24:00,0.12473,R,ugm-3,12.43125,R,ugm-3,12.81375,R,ugm-3,58.07487,R,ugm-3
09-01-2023,01:00,0.00000,R,ugm-3,7.84125,R,ugm-3,8.03250,R,ugm-3,57.87530,R,ugm-3
09-01-2023,02:00,0.12473,R,ugm-3,8.60625,R,ugm-3,8.79750,R,ugm-3,55.48046,R,ugm-3
09-01-2023,03:00,0.00000,R,ugm-3,5.54625,R,ugm-3,5.54625,R,ugm-3,53.68433,R,ugm-3
09-01-2023,04:00,0.12473,R,ugm-3,3.82500,R,ugm-3,4.01625,R,ugm-3,55.68003,R,ugm-3
09-01-2023,05:00,0.12473,R,ugm-3,7.26750,R,ugm-3,7.45875,R,ugm-3,52.08777,R,ugm-3
09-01-2023,06:00,0.12473,R,ugm-3,8.60625,R,ugm-3,8.98875,R,ugm-3,52.08777,R,ugm-3
09-01-2023,07:00,0.37419,R,ugm-3,10.90125,R,ugm-3,11.47500,R,ugm-3,48.29594,R,ugm-3
09-01-2023,08:00,0.87311,R,ugm-3,23.14125,R,ugm-3,24.67125,R,ugm-3,37.71873,R,ugm-3
09-01-2023,09:00,2.49460,R,ugm-3,37.29375,R,ugm-3,41.11875,R,ugm-3,27.54066,R,ugm-3
09-01-2023,10:00,2.49460,R,ugm-3,26.39250,R,ugm-3,30.21750,R,ugm-3,38.91615,R,ugm-3
09-01-2023,11:00,2.36987,R,ugm-3,19.12500,R,ugm-3,22.75875,R,ugm-3,41.90970,R,ugm-3
09-01-2023,12:00,1.62149,R,ugm-3,11.28375,R,ugm-3,13.77000,R,ugm-3,52.88605,R,ugm-3
09-01-2023,13:00,1.24730,R,ugm-3,7.65000,R,ugm-3,9.75375,R,ugm-3,57.07702,R,ugm-3
09-01-2023,14:00,0.74838,R,ugm-3,7.45875,R,ugm-3,8.60625,R,ugm-3,56.87745,R,ugm-3
09-01-2023,15:00,0.62365,R,ugm-3,6.31125,R,ugm-3,7.26750,R,ugm-3,59.67143,R,ugm-3
09-01-2023,16:00,0.49892,R,ugm-3,8.98875,R,ugm-3,9.56250,R,ugm-3,52.68648,R,ugm-3
09-01-2023,17:00,0.74838,R,ugm-3,17.02125,R,ugm-3,18.16875,R,ugm-3,50.49121,R,ugm-3
09-01-2023,18:00,0.87311,R,ugm-3,19.50750,R,ugm-3,20.84625,R,ugm-3,41.31099,R,ugm-3
09-01-2023,19:00,0.99784,R,ugm-3,19.69875,R,ugm-3,21.22875,R,ugm-3,47.09852,R,ugm-3
09-01-2023,20:00,1.12257,R,ugm-3,18.36000,R,ugm-3,19.89000,R,ugm-3,44.90325,R,ugm-3
09-01-2023,21:00,0.74838,R,ugm-3,22.56750,R,ugm-3,23.90625,R,ugm-3,40.91185,R,ugm-3
09-01-2023,22:00,0.49892,R,ugm-3,17.40375,R,ugm-3,18.16875,R,ugm-3,45.50196,R,ugm-3
09-01-2023,23:00,0.37419,R,ugm-3,18.36000,R,ugm-3,18.93375,R,ugm-3,46.49981,R,ugm-3
09-01-2023,24:00,0.12473,R,ugm-3,13.38750,R,ugm-3,13.57875,R,ugm-3,47.09852,R,ugm-3
10-01-2023,01:00,0.24946,R,ugm-3,19.50750,R,ugm-3,19.89000,R,ugm-3,39.31529,R,ugm-3
10-01-2023,02:00,0.12473,R,ugm-3,13.19625,R,ugm-3,13.38750,R,ugm-3,45.10282,R,ugm-3
10-01-2023,03:00,0.12473,R,ugm-3,10.13625,R,ugm-3,10.51875,R,ugm-3,47.69723,R,ugm-3
10-01-2023,04:00,0.12473,R,ugm-3,6.50250,R,ugm-3,6.69375,R,ugm-3,50.49121,R,ugm-3
10-01-2023,05:00,0.24946,R,ugm-3,9.56250,R,ugm-3,9.75375,R,ugm-3,46.10067,R,ugm-3
10-01-2023,06:00,0.24946,R,ugm-3,18.55125,R,ugm-3,18.93375,R,ugm-3,40.31314,R,ugm-3
10-01-2023,07:00,0.49892,R,ugm-3,21.99375,R,ugm-3,22.56750,R,ugm-3,42.30884,R,ugm-3
10-01-2023,08:00,0.87311,R,ugm-3,30.02625,R,ugm-3,31.36500,R,ugm-3,34.52561,R,ugm-3
10-01-2023,09:00,1.24730,R,ugm-3,35.57250,R,ugm-3,37.48500,R,ugm-3,42.30884,R,ugm-3
10-01-2023,10:00,0.74838,R,ugm-3,19.12500,R,ugm-3,20.27250,R,ugm-3,57.67573,R,ugm-3
10-01-2023,11:00,0.62365,R,ugm-3,17.59500,R,ugm-3,18.55125,R,ugm-3,53.48476,R,ugm-3
10-01-2023,12:00,0.87311,R,ugm-3,20.27250,R,ugm-3,21.42000,R,ugm-3,45.90110,R,ugm-3
10-01-2023,13:00,0.99784,R,ugm-3,19.31625,R,ugm-3,20.84625,R,ugm-3,40.51271,R,ugm-3
10-01-2023,14:00,1.37203,R,ugm-3,17.59500,R,ugm-3,19.69875,R,ugm-3,37.12002,R,ugm-3
10-01-2023,15:00,0.87311,R,ugm-3,14.53500,R,ugm-3,15.68250,R,ugm-3,40.11357,R,ugm-3
10-01-2023,16:00,0.62365,R,ugm-3,14.15250,R,ugm-3,15.30000,R,ugm-3,40.91185,R,ugm-3
10-01-2023,17:00,0.49892,R,ugm-3,14.34375,R,ugm-3,15.10875,R,ugm-3,41.31099,R,ugm-3
10-01-2023,18:00,0.49892,R,ugm-3,12.81375,R,ugm-3,13.57875,R,ugm-3,44.30454,R,ugm-3
10-01-2023,19:00,0.49892,R,ugm-3,10.71000,R,ugm-3,11.47500,R,ugm-3,44.90325,R,ugm-3
10-01-2023,20:00,0.37419,R,ugm-3,8.60625,R,ugm-3,9.18000,R,ugm-3,45.70153,R,ugm-3
10-01-2023,21:00,0.12473,R,ugm-3,8.22375,R,ugm-3,8.41500,R,ugm-3,44.50411,R,ugm-3
10-01-2023,22:00,0.12473,R,ugm-3,8.41500,R,ugm-3,8.60625,R,ugm-3,47.29809,R,ugm-3
10-01-2023,23:00,0.00000,R,ugm-3,7.65000,R,ugm-3,7.65000,R,ugm-3,56.87745,R,ugm-3
10-01-2023,24:00,0.00000,R,ugm-3,4.20750,R,ugm-3,4.39875,R,ugm-3,64.86025,R,ugm-3
11-01-2023,01:00,0.00000,R,ugm-3,6.31125,R,ugm-3,6.31125,R,ugm-3,61.86670,R,ugm-3
11-01-2023,02:00,0.00000,R,ugm-3,5.16375,R,ugm-3,5.35500,R,ugm-3,62.86455,R,ugm-3
11-01-2023,03:00,0.00000,R,ugm-3,4.78125,R,ugm-3,4.78125,R,ugm-3,63.26369,R,ugm-3
11-01-2023,04:00,0.00000,R,ugm-3,4.78125,R,ugm-3,4.78125,R,ugm-3,59.67143,R,ugm-3
11-01-2023,05:00,0.12473,R,ugm-3,5.54625,R,ugm-3,5.73750,R,ugm-3,56.07917,R,ugm-3
11-01-2023,06:00,0.12473,R,ugm-3,6.31125,R,ugm-3,6.50250,R,ugm-3,56.27874,R,ugm-3
11-01-2023,07:00,0.24946,R,ugm-3,7.65000,R,ugm-3,8.03250,R,ugm-3,54.68218,R,ugm-3
11-01-2023,08:00,0.74838,R,ugm-3,16.25625,R,ugm-3,17.40375,R,ugm-3,47.09852,R,ugm-3
11-01-2023,09:00,1.12257,R,ugm-3,20.65500,R,ugm-3,22.56750,R,ugm-3,43.50626,R,ugm-3
11-01-2023,10:00,1.87095,R,ugm-3,19.89000,R,ugm-3,22.75875,R,ugm-3,43.90540,R,ugm-3
11-01-2023,11:00,1.99568,R,ugm-3,14.15250,R,ugm-3,17.21250,R,ugm-3,52.28734,R,ugm-3
11-01-2023,12:00,1.49676,R,ugm-3,9.37125,R,ugm-3,11.85750,R,ugm-3,57.87530,R,ugm-3
11-01-2023,13:00,1.24730,R,ugm-3,9.75375,R,ugm-3,11.66625,R,ugm-3,58.47401,R,ugm-3
11-01-2023,14:00,0.62365,R,ugm-3,8.98875,R,ugm-3,9.94500,R,ugm-3,60.27014,R,ugm-3
11-01-2023,15:00,0.62365,R,ugm-3,13.00500,R,ugm-3,14.15250,R,ugm-3,56.87745,R,ugm-3
11-01-2023,16:00,0.62365,R,ugm-3,14.91750,R,ugm-3,15.87375,R,ugm-3,53.28519,R,ugm-3
11-01-2023,17:00,0.49892,R,ugm-3,16.06500,R,ugm-3,17.02125,R,ugm-3,56.87745,R,ugm-3
11-01-2023,18:00,0.74838,R,ugm-3,22.95000,R,ugm-3,24.09750,R,ugm-3,52.88605,R,ugm-3
11-01-2023,19:00,0.49892,R,ugm-3,16.44750,R,ugm-3,17.21250,R,ugm-3,59.67143,R,ugm-3
11-01-2023,20:00,0.37419,R,ugm-3,13.19625,R,ugm-3,13.77000,R,ugm-3,59.87100,R,ugm-3
11-01-2023,21:00,0.24946,R,ugm-3,12.81375,R,ugm-3,13.19625,R,ugm-3,57.27659,R,ugm-3
11-01-2023,22:00,0.12473,R,ugm-3,9.18000,R,ugm-3,9.37125,R,ugm-3,60.07057,R,ugm-3
11-01-2023,23:00,0.00000,R,ugm-3,8.22375,R,ugm-3,8.22375,R,ugm-3,61.26799,R,ugm-3
11-01-2023,24:00,0.00000,R,ugm-3,5.16375,R,ugm-3,5.16375,R,ugm-3,64.46111,R,ugm-3
12-01-2023,01:00,0.12473,R,ugm-3,3.25125,R,ugm-3,3.44250,R,ugm-3,66.05767,R,ugm-3
12-01-2023,02:00,0.00000,R,ugm-3,2.29500,R,ugm-3,2.29500,R,ugm-3,65.65853,R,ugm-3
12-01-2023,03:00,-0.12473,R,ugm-3,1.33875,R,ugm-3,1.14750,R,ugm-3,64.86025,R,ugm-3
12-01-2023,04:00,-0.12473,R,ugm-3,0.95625,R,ugm-3,0.76500,R,ugm-3,63.86240,R,ugm-3
12-01-2023,05:00,-0.12473,R,ugm-3,1.53000,R,ugm-3,1.33875,R,ugm-3,62.86455,R,ugm-3
12-01-2023,06:00,0.00000,R,ugm-3,2.86875,R,ugm-3,2.86875,R,ugm-3,60.66928,R,ugm-3
12-01-2023,07:00,0.00000,R,ugm-3,5.16375,R,ugm-3,5.16375,R,ugm-3,57.47616,R,ugm-3
12-01-2023,08:00,0.37419,R,ugm-3,9.94500,R,ugm-3,10.51875,R,ugm-3,53.48476,R,ugm-3
12-01-2023,09:00,0.49892,R,ugm-3,12.43125,R,ugm-3,13.38750,R,ugm-3,50.69078,R,ugm-3
12-01-2023,10:00,0.62365,R,ugm-3,14.15250,R,ugm-3,15.10875,R,ugm-3,51.88820,R,ugm-3
12-01-2023,11:00,0.62365,R,ugm-3,11.28375,R,ugm-3,12.24000,R,ugm-3,53.48476,R,ugm-3
12-01-2023,12:00,0.62365,R,ugm-3,10.51875,R,ugm-3,11.47500,R,ugm-3,53.88390,R,ugm-3
12-01-2023,13:00,0.62365,R,ugm-3,12.04875,R,ugm-3,13.00500,R,ugm-3,53.28519,R,ugm-3
12-01-2023,14:00,0.37419,R,ugm-3,10.90125,R,ugm-3,11.47500,R,ugm-3,55.68003,R,ugm-3
12-01-2023,15:00,0.37419,R,ugm-3,10.32750,R,ugm-3,10.90125,R,ugm-3,57.87530,R,ugm-3
12-01-2023,16:00,0.62365,R,ugm-3,14.15250,R,ugm-3,14.91750,R,ugm-3,57.47616,R,ugm-3
12-01-2023,17:00,0.37419,R,ugm-3,17.21250,R,ugm-3,17.78625,R,ugm-3,60.27014,R,ugm-3
12-01-2023,18:00,0.37419,R,ugm-3,10.13625,R,ugm-3,10.71000,R,ugm-3,67.05552,R,ugm-3
12-01-2023,19:00,0.49892,R,ugm-3,10.71000,R,ugm-3,11.47500,R,ugm-3,60.66928,R,ugm-3
12-01-2023,20:00,0.49892,R,ugm-3,12.04875,R,ugm-3,12.81375,R,ugm-3,59.27229,R,ugm-3
12-01-2023,21:00,0.49892,R,ugm-3,11.09250,R,ugm-3,11.85750,R,ugm-3,61.06842,R,ugm-3
12-01-2023,22:00,0.00000,R,ugm-3,8.98875,R,ugm-3,8.98875,R,ugm-3,60.86885,R,ugm-3
12-01-2023,23:00,0.24946,R,ugm-3,6.31125,R,ugm-3,6.69375,R,ugm-3,63.26369,R,ugm-3
12-01-2023,24:00,0.12473,R,ugm-3,5.35500,R,ugm-3,5.54625,R,ugm-3,64.46111,R,ugm-3
13-01-2023,01:00,0.00000,R,ugm-3,2.67750,R,ugm-3,2.67750,R,ugm-3,66.25724,R,ugm-3